When you browse on this site, cookies collect data to enhance your experience and personalize the content and advertising you see.
Visit our Privacy Policy to learn more. By continuing to use the site, you agree to this use of cookies and data.
  • en France
  • Liste des pays
  • À 7 jours
  • Température de l'eau
  • Carte satellitaire
  • Carte météo
  • Widgets météo
  • user-avatar
    Se connecter

    Météo par heure à Krasava

    Ce jour, 19 Février, Mardi

    Heure Température Précipitation Vent Pression Humidité
    00:00 -12°C° 0 mm 4 m/s 751 mmHg 88%
    01:00 -13°C° 0 mm 3 m/s 752 mmHg 90%
    02:00 -14°C° 0 mm 3 m/s 752 mmHg 91%
    03:00 -14°C° 0 mm 3 m/s 752 mmHg 92%
    04:00 -14°C° 0 mm 2 m/s 752 mmHg 92%
    05:00 -14°C° 0 mm 2 m/s 752 mmHg 92%
    06:00 -15°C° 0 mm 2 m/s 753 mmHg 93%
    07:00 -14°C° 0 mm 2 m/s 753 mmHg 92%
    08:00 -14°C° 0 mm 2 m/s 753 mmHg 92%
    09:00 -13°C° 0 mm 2 m/s 753 mmHg 91%
    10:00 -13°C° 0 mm 3 m/s 753 mmHg 89%
    11:00 -12°C° 0 mm 4 m/s 752 mmHg 88%
    12:00 -10°C° 0 mm 4 m/s 752 mmHg 86%
    13:00 -10°C° 0 mm 5 m/s 751 mmHg 86%
    14:00 -10°C° 0 mm 5 m/s 750 mmHg 85%
    15:00 -9°C° 0 mm 6 m/s 750 mmHg 85%
    16:00 -9°C° 0 mm 6 m/s 749 mmHg 85%
    17:00 -9°C° 0 mm 6 m/s 749 mmHg 85%
    18:00 -9°C° 0 mm 6 m/s 749 mmHg 85%
    19:00 -9°C° 0 mm 6 m/s 749 mmHg 85%
    20:00 -9°C° 0 mm 6 m/s 748 mmHg 86%
    21:00 -8°C° 0 mm 5 m/s 748 mmHg 86%
    22:00 -8°C° 0 mm 5 m/s 747 mmHg 86%
    23:00 -8°C° 0 mm 5 m/s 747 mmHg 85%

    Demain, 20 Février, Mercredi

    Heure Température Précipitation Vent Pression Humidité
    00:00 -8°C° 0 mm 5 m/s 746 mmHg 85%
    01:00 -8°C° 0 mm 5 m/s 746 mmHg 84%
    02:00 -10°C° 0 mm 6 m/s 746 mmHg 84%
    03:00 -10°C° 0 mm 6 m/s 745 mmHg 83%
    04:00 -10°C° 0 mm 6 m/s 745 mmHg 84%
    05:00 -10°C° 0 mm 6 m/s 744 mmHg 85%
    06:00 -10°C° 0 mm 6 m/s 743 mmHg 87%
    07:00 -9°C° 0 mm 6 m/s 743 mmHg 87%
    08:00 -8°C° 0 mm 6 m/s 743 mmHg 88%
    09:00 -8°C° 0 mm 7 m/s 742 mmHg 89%
    10:00 -6°C° 0.1 mm 6 m/s 742 mmHg 89%
    11:00 -5°C° 0.1 mm 6 m/s 742 mmHg 89%
    12:00 -4°C° 0.1 mm 6 m/s 741 mmHg 89%
    13:00 -4°C° 0.1 mm 6 m/s 741 mmHg 89%
    14:00 -3°C° 0.1 mm 7 m/s 741 mmHg 89%
    15:00 -3°C° 0.1 mm 7 m/s 740 mmHg 89%
    16:00 -3°C° 0.2 mm 6 m/s 740 mmHg 90%
    17:00 -3°C° 0.2 mm 6 m/s 740 mmHg 91%
    18:00 -3°C° 0.2 mm 6 m/s 740 mmHg 92%
    19:00 -3°C° 0.3 mm 6 m/s 739 mmHg 92%
    20:00 -2°C° 0.3 mm 5 m/s 739 mmHg 92%
    21:00 -1°C° 0.3 mm 5 m/s 739 mmHg 93%
    22:00 -1°C° 0.1 mm 5 m/s 739 mmHg 92%
    23:00 -1°C° 0.1 mm 5 m/s 739 mmHg 92%

    Après-demain, 21 Février, Jeudi

    Heure Température Précipitation Vent Pression Humidité
    00:00 -1°C° 0.1 mm 5 m/s 738 mmHg 91%
    01:00 -2°C° 0 mm 5 m/s 738 mmHg 92%
    02:00 -2°C° 0 mm 5 m/s 738 mmHg 92%
    03:00 -2°C° 0 mm 5 m/s 738 mmHg 92%
    04:00 -2°C° 0.1 mm 5 m/s 737 mmHg 92%
    05:00 -2°C° 0.1 mm 5 m/s 737 mmHg 93%
    06:00 -2°C° 0.1 mm 5 m/s 736 mmHg 93%
    07:00 -2°C° 0.3 mm 5 m/s 736 mmHg 93%
    08:00 -2°C° 0.3 mm 5 m/s 736 mmHg 92%
    09:00 -2°C° 0.3 mm 5 m/s 736 mmHg 92%
    10:00 -2°C° 0.3 mm 5 m/s 736 mmHg 95%
    11:00 -2°C° 0.3 mm 4 m/s 736 mmHg 97%
    12:00 -1°C° 0.3 mm 4 m/s 735 mmHg 99%
    13:00 -2°C° 0.2 mm 4 m/s 735 mmHg 97%
    14:00 -2°C° 0.2 mm 4 m/s 735 mmHg 95%
    15:00 -3°C° 0.2 mm 4 m/s 735 mmHg 93%
    16:00 -3°C° 0.1 mm 4 m/s 735 mmHg 93%
    17:00 -4°C° 0.1 mm 3 m/s 736 mmHg 94%
    18:00 -4°C° 0.1 mm 3 m/s 736 mmHg 95%
    19:00 -4°C° 0.2 mm 3 m/s 736 mmHg 94%
    20:00 -5°C° 0.2 mm 4 m/s 736 mmHg 93%
    21:00 -5°C° 0.2 mm 4 m/s 736 mmHg 92%
    22:00 -6°C° 0.2 mm 5 m/s 736 mmHg 93%
    23:00 -6°C° 0.2 mm 5 m/s 737 mmHg 93%

    22 Février, Vendredi

    Heure Température Précipitation Vent Pression Humidité
    00:00 -6°C° 0.2 mm 5 m/s 737 mmHg 93%
    01:00 -8°C° 0.3 mm 6 m/s 737 mmHg 92%
    02:00 -9°C° 0.3 mm 7 m/s 738 mmHg 91%
    03:00 -11°C° 0.3 mm 7 m/s 738 mmHg 89%
    04:00 -12°C° 0.2 mm 7 m/s 739 mmHg 89%
    05:00 -13°C° 0.2 mm 7 m/s 740 mmHg 88%
    06:00 -13°C° 0.2 mm 7 m/s 740 mmHg 87%
    07:00 -14°C° 0.1 mm 7 m/s 741 mmHg 87%
    08:00 -14°C° 0.1 mm 7 m/s 742 mmHg 86%
    09:00 -15°C° 0.1 mm 8 m/s 742 mmHg 86%
    10:00 -14°C° 0.1 mm 7 m/s 743 mmHg 85%
    11:00 -15°C° 0.1 mm 7 m/s 743 mmHg 84%
    12:00 -15°C° 0.1 mm 7 m/s 744 mmHg 83%
    13:00 -15°C° 0.1 mm 7 m/s 744 mmHg 83%
    14:00 -15°C° 0.1 mm 7 m/s 745 mmHg 83%
    15:00 -15°C° 0.1 mm 7 m/s 745 mmHg 83%
    16:00 -15°C° 0.1 mm 6 m/s 746 mmHg 85%
    17:00 -16°C° 0.1 mm 6 m/s 746 mmHg 86%
    18:00 -15°C° 0.1 mm 5 m/s 747 mmHg 88%
    19:00 -17°C° 0.1 mm 5 m/s 747 mmHg 88%
    20:00 -17°C° 0.1 mm 5 m/s 747 mmHg 89%
    21:00 -17°C° 0.1 mm 4 m/s 748 mmHg 89%
    22:00 -17°C° 0 mm 4 m/s 748 mmHg 89%
    23:00 -17°C° 0 mm 4 m/s 749 mmHg 90%

    23 Février, Samedi

    Heure Température Précipitation Vent Pression Humidité
    00:00 -17°C° 0 mm 4 m/s 749 mmHg 90%
    01:00 -17°C° 0.1 mm 4 m/s 750 mmHg 91%
    02:00 -17°C° 0.1 mm 4 m/s 750 mmHg 91%
    03:00 -16°C° 0.1 mm 4 m/s 751 mmHg 91%
    04:00 -16°C° 0.1 mm 4 m/s 751 mmHg 91%
    05:00 -16°C° 0.1 mm 4 m/s 752 mmHg 92%
    06:00 -16°C° 0.1 mm 4 m/s 752 mmHg 92%
    07:00 -16°C° 0.1 mm 4 m/s 753 mmHg 91%
    08:00 -16°C° 0.1 mm 4 m/s 753 mmHg 90%
    09:00 -16°C° 0.1 mm 4 m/s 754 mmHg 90%
    10:00 -15°C° 0 mm 4 m/s 754 mmHg 89%
    11:00 -15°C° 0 mm 4 m/s 754 mmHg 88%
    12:00 -15°C° 0 mm 4 m/s 755 mmHg 87%
    13:00 -14°C° 0 mm 4 m/s 755 mmHg 86%
    14:00 -14°C° 0 mm 4 m/s 755 mmHg 86%
    15:00 -13°C° 0 mm 3 m/s 755 mmHg 85%
    16:00 -13°C° 0 mm 3 m/s 756 mmHg 88%
    17:00 -13°C° 0 mm 2 m/s 756 mmHg 90%
    18:00 -13°C° 0 mm 2 m/s 757 mmHg 92%
    19:00 -14°C° 0 mm 2 m/s 757 mmHg 93%
    20:00 -14°C° 0 mm 2 m/s 757 mmHg 94%
    21:00 -15°C° 0 mm 2 m/s 758 mmHg 94%
    22:00 -15°C° 0 mm 2 m/s 758 mmHg 95%
    23:00 -14°C° 0 mm 2 m/s 758 mmHg 95%

    24 Février, Dimanche

    Heure Température Précipitation Vent Pression Humidité
    00:00 -14°C° 0 mm 2 m/s 759 mmHg 95%
    01:00 -14°C° 0 mm 2 m/s 759 mmHg 96%
    02:00 -14°C° 0 mm 2 m/s 759 mmHg 96%
    03:00 -14°C° 0 mm 2 m/s 759 mmHg 96%
    04:00 -15°C° 0 mm 2 m/s 760 mmHg 96%
    05:00 -16°C° 0 mm 2 m/s 760 mmHg 95%
    06:00 -16°C° 0 mm 2 m/s 760 mmHg 95%
    07:00 -17°C° 0 mm 2 m/s 760 mmHg 94%
    08:00 -17°C° 0 mm 2 m/s 760 mmHg 93%
    09:00 -17°C° 0 mm 2 m/s 761 mmHg 92%
    10:00 -16°C° 0 mm 2 m/s 761 mmHg 88%
    11:00 -15°C° 0 mm 2 m/s 761 mmHg 84%
    12:00 -13°C° 0 mm 2 m/s 761 mmHg 80%
    13:00 -12°C° 0 mm 2 m/s 761 mmHg 81%
    14:00 -10°C° 0 mm 2 m/s 761 mmHg 81%
    15:00 -10°C° 0 mm 2 m/s 761 mmHg 81%
    16:00 -12°C° 0 mm 2 m/s 761 mmHg 84%
    17:00 -13°C° 0 mm 2 m/s 761 mmHg 86%
    18:00 -14°C° 0 mm 2 m/s 761 mmHg 89%
    19:00 -15°C° 0 mm 2 m/s 761 mmHg 89%
    20:00 -15°C° 0 mm 2 m/s 761 mmHg 89%
    21:00 -15°C° 0 mm 2 m/s 761 mmHg 88%
    22:00 -15°C° 0 mm 2 m/s 761 mmHg 89%
    23:00 -15°C° 0 mm 2 m/s 761 mmHg 90%
    Voir plus